This is the latest recevied weather packets stored in our database for station/object N2RDT. If no packets are shown the sender has not sent any weather packets the latest 10 day(s).
| Time | Temp. | Humidity | Pressure | Rain* | Wind** | Luminosity | Snow |
|---|---|---|---|---|---|---|---|
| 1777756307 | 13.33° C | 80% | 1011.9 hPa | 0 mm | - | 167 W/m² | - |
| 1777756004 | 13.33° C | 80% | 1011.8 hPa | 0 mm | - | 175 W/m² | - |
| 1777755701 | 13.33° C | 80% | 1011.8 hPa | 0 mm | - | 172 W/m² | - |
| 1777755398 | 13.33° C | 81% | 1011.9 hPa | 0 mm | - | 177 W/m² | - |
| 1777755095 | 12.78° C | 81% | 1012 hPa | 0 mm | - | 181 W/m² | - |
| 1777754792 | 13.33° C | 82% | 1012.2 hPa | 0 mm | - | 181 W/m² | - |
| 1777754489 | 13.33° C | 80% | 1012 hPa | 0 mm | - | 202 W/m² | - |
| 1777754186 | 13.33° C | 80% | 1012 hPa | 0 mm | - | 202 W/m² | - |
| 1777753884 | 13.33° C | 82% | 1012 hPa | 0 mm | - | 205 W/m² | - |
| 1777753579 | 12.78° C | 81% | 1011.9 hPa | 0 mm | - | 284 W/m² | - |
| 1777753277 | 13.33° C | 81% | 1012 hPa | 0 mm | - | 247 W/m² | - |
| 1777752973 | 12.78° C | 81% | 1011.9 hPa | 0 mm | - | 279 W/m² | - |
| 1777752670 | 12.78° C | 83% | 1011.8 hPa | 0 mm | - | 149 W/m² | - |
| 1777752366 | 13.33° C | 81% | 1012 hPa | 0 mm | - | 145 W/m² | - |
| 1777752064 | 13.89° C | 78% | 1012.1 hPa | 0 mm | - | 188 W/m² | - |
| 1777751762 | 13.89° C | 78% | 1012 hPa | 0 mm | - | 356 W/m² | - |
| 1777751457 | 13.89° C | 78% | 1012.2 hPa | 0 mm | - | 408 W/m² | - |
| 1777751154 | 13.33° C | 79% | 1012 hPa | 0 mm | - | 390 W/m² | - |
| 1777750850 | 13.33° C | 79% | 1012.2 hPa | 0 mm | - | 286 W/m² | - |
| 1777750548 | 13.33° C | 80% | 1012.4 hPa | 0 mm | - | 334 W/m² | - |
| 1777750244 | 13.33° C | 80% | 1012.5 hPa | 0 mm | - | 308 W/m² | - |
| 1777749940 | 13.33° C | 80% | 1012.3 hPa | 0 mm | - | 362 W/m² | - |
| 1777749638 | 12.78° C | 81% | 1012.4 hPa | 0 mm | - | 368 W/m² | - |
| 1777749334 | 12.78° C | 82% | 1012.5 hPa | 0 mm | - | 399 W/m² | - |
| 1777749032 | 12.78° C | 82% | 1012.4 hPa | 0 mm | - | 349 W/m² | - |
* Rain latest hour (hover to see other rain measurements)
** Current wind speed in m/s (hover to see current wind gust speed)